Location: Unspecified
(42.3650°N, 71.1030°W)
Time: 15:37:13
(UTC+00:00)

Transit 2A - Pass Details

Date: 02 July 2024
Orbit: 591 x 960 km, 66.7° (Epoch: 16 July)

Event Time Altitude Azimuth Distance (km) Brightness Sun altitude
Rises 01:28:27 0° 333° (NNW) 3,550 11.0 -10.0°
Reaches altitude 10° 01:31:06 10° 341° (NNW) 2,642 9.9 -10.3°
Maximum altitude 01:36:58 41° 51° (NE) 1,356 7.2 -11.1°
Enters shadow 01:42:11 13° 117° (ESE) 2,445 8.0 -11.8°
